User: anonymous   Login
Location: Brahman Valley
(40.6513°N, 111.8855°W)
Time: 08:39:01
(UTC+00:00)
Language:

DOVE 4 - Orbit

View from above orbital plane
View from above orbital plane
View from above satellite
View from above satellite

Ground track
Ground track

The orbit data is extracted from the following two-line orbital elements,

1 39430U 13066Q   21171.41178866  .00000253  00000-0  53996-4 0  9994
2 39430  97.8141  94.3126 0151858 105.3352 256.4672 14.59618324403476
Epoch (UTC): 20 June 2021 09:52:58
Eccentricity: 0.0151858
inclination: 97.8141°
perigee height: 587 km
apogee height: 802 km
right ascension of ascending node: 94.3126°
argument of perigee: 105.3352°
revolutions per day: 14.59618324
mean anomaly at epoch: 256.4672°
orbit number at epoch: 40347

The dashed part of the orbit path shows where the satellite is in the earth's shadow,  

DLR